Time,TemperatureF,DewpointF,PressureIn,WindDirection,WindDirectionDegrees,WindSpeedMPH,WindSpeedGustMPH,Humidity,HourlyPrecipIn,Conditions,Clouds,dailyrainin,SoftwareType,DateUTC
2013-07-05 00:03:00,60.9,52.9,30.09,NNE,21,4.0,7.0,75,0.00,,,0.00,Wunderground v.1.15,2013-07-05 07:03:00,
2013-07-05 00:08:00,60.7,52.7,30.10,NE,36,4.0,7.0,75,0.00,,,0.00,Wunderground v.1.15,2013-07-05 07:08:00,
2013-07-05 00:14:00,60.6,53.0,30.10,NE,35,0.0,5.0,76,0.00,,,0.00,Wunderground v.1.15,2013-07-05 07:14:00,
2013-07-05 00:19:00,60.5,52.9,30.10,NE,47,0.0,5.0,76,0.00,,,0.00,Wunderground v.1.15,2013-07-05 07:19:00,
2013-07-05 00:25:00,60.3,52.7,30.10,NE,48,0.0,1.0,76,0.00,,,0.00,Wunderground v.1.15,2013-07-05 07:25:00,
2013-07-05 00:30:00,60.2,52.6,30.10,NE,49,0.0,0.0,76,0.00,,,0.00,Wunderground v.1.15,2013-07-05 07:30:00,
2013-07-05 00:36:00,60.0,52.8,30.10,NE,49,0.0,0.0,77,0.00,,,0.00,Wunderground v.1.15,2013-07-05 07:36:00,
2013-07-05 00:41:00,59.8,52.6,30.10,NE,38,2.0,2.0,77,0.00,,,0.00,Wunderground v.1.15,2013-07-05 07:41:00,
2013-07-05 00:47:00,59.6,52.7,30.09,NNE,23,0.0,5.0,78,0.00,,,0.00,Wunderground v.1.15,2013-07-05 07:47:00,
2013-07-05 00:52:00,59.4,52.9,30.10,NNW,346,0.0,1.0,79,0.00,,,0.00,Wunderground v.1.15,2013-07-05 07:52:00,
2013-07-05 00:58:00,59.3,52.8,30.10,NNW,327,0.0,3.0,79,0.00,,,0.00,Wunderground v.1.15,2013-07-05 07:58:00,
2013-07-05 01:03:00,59.2,53.0,30.10,North,349,2.0,2.0,80,0.00,,,0.00,Wunderground v.1.15,2013-07-05 08:03:00,
2013-07-05 01:09:00,59.0,52.8,30.10,North,350,2.0,3.0,80,0.00,,,0.00,Wunderground v.1.15,2013-07-05 08:09:00,
2013-07-05 01:14:00,59.0,52.8,30.10,North,11,0.0,1.0,80,0.00,,,0.00,Wunderground v.1.15,2013-07-05 08:14:00,
2013-07-05 01:19:00,59.0,52.8,30.10,NNE,19,0.0,1.0,80,0.00,,,0.00,Wunderground v.1.15,2013-07-05 08:19:00,
2013-07-05 01:25:00,59.0,52.8,30.10,ENE,69,0.0,1.0,80,0.00,,,0.00,Wunderground v.1.15,2013-07-05 08:25:00,
2013-07-05 01:30:00,58.8,52.6,30.10,NE,40,0.0,0.0,80,0.00,,,0.00,Wunderground v.1.15,2013-07-05 08:30:00,
2013-07-05 01:36:00,58.6,52.1,30.10,NNE,21,0.0,0.0,79,0.00,,,0.00,Wunderground v.1.15,2013-07-05 08:36:00,
2013-07-05 01:41:00,58.5,52.0,30.10,North,5,0.0,0.0,79,0.00,,,0.00,Wunderground v.1.15,2013-07-05 08:41:00,
2013-07-05 01:47:00,58.4,52.3,30.10,East,100,0.0,2.0,80,0.00,,,0.00,Wunderground v.1.15,2013-07-05 08:47:00,
2013-07-05 01:52:00,58.2,52.1,30.10,East,101,0.0,0.0,80,0.00,,,0.00,Wunderground v.1.15,2013-07-05 08:52:00,
2013-07-05 01:58:00,58.1,52.0,30.10,East,100,0.0,0.0,80,0.00,,,0.00,Wunderground v.1.15,2013-07-05 08:58:00,
2013-07-05 02:03:00,58.0,51.9,30.10,East,100,0.0,0.0,80,0.00,,,0.00,Wunderground v.1.15,2013-07-05 09:03:00,
2013-07-05 02:08:00,57.9,52.1,30.10,ESE,103,0.0,0.0,81,0.00,,,0.00,Wunderground v.1.15,2013-07-05 09:08:00,
2013-07-05 02:13:00,57.8,52.0,30.10,East,101,0.0,0.0,81,0.00,,,0.00,Wunderground v.1.15,2013-07-05 09:13:00,
2013-07-05 02:18:00,57.7,51.9,30.10,ESE,109,0.0,0.0,81,0.00,,,0.00,Wunderground v.1.15,2013-07-05 09:18:00,
2013-07-05 02:24:00,57.6,51.8,30.10,ESE,107,0.0,0.0,81,0.00,,,0.00,Wunderground v.1.15,2013-07-05 09:24:00,
2013-07-05 02:29:00,57.6,51.8,30.10,ESE,107,0.0,0.0,81,0.00,,,0.00,Wunderground v.1.15,2013-07-05 09:29:00,
2013-07-05 02:34:00,57.5,51.7,30.09,ESE,107,0.0,0.0,81,0.00,,,0.00,Wunderground v.1.15,2013-07-05 09:34:00,
2013-07-05 02:39:00,57.5,51.7,30.09,ESE,107,0.0,0.0,81,0.00,,,0.00,Wunderground v.1.15,2013-07-05 09:39:00,
2013-07-05 02:44:00,57.4,51.9,30.09,ESE,107,0.0,0.0,82,0.00,,,0.00,Wunderground v.1.15,2013-07-05 09:44:00,
2013-07-05 02:50:00,57.3,51.9,30.10,ESE,107,0.0,0.0,82,0.00,,,0.00,Wunderground v.1.15,2013-07-05 09:50:00,
2013-07-05 02:55:00,57.3,51.9,30.10,ESE,107,0.0,0.0,82,0.00,,,0.00,Wunderground v.1.15,2013-07-05 09:55:00,
2013-07-05 03:01:00,57.3,51.9,30.10,ESE,107,0.0,0.0,82,0.00,,,0.00,Wunderground v.1.15,2013-07-05 10:01:00,
2013-07-05 03:06:00,57.3,52.2,30.10,ESE,107,0.0,0.0,83,0.00,,,0.00,Wunderground v.1.15,2013-07-05 10:06:00,
2013-07-05 03:11:00,57.4,52.3,30.10,ESE,104,0.0,0.0,83,0.00,,,0.00,Wunderground v.1.15,2013-07-05 10:11:00,
2013-07-05 03:17:00,57.5,52.4,30.10,NW,322,0.0,0.0,83,0.00,,,0.00,Wunderground v.1.15,2013-07-05 10:17:00,
2013-07-05 03:22:00,57.5,52.4,30.09,NW,321,0.0,0.0,83,0.00,,,0.00,Wunderground v.1.15,2013-07-05 10:22:00,
2013-07-05 03:27:00,57.4,52.3,30.10,NW,323,0.0,0.0,83,0.00,,,0.00,Wunderground v.1.15,2013-07-05 10:27:00,
2013-07-05 03:32:00,57.3,52.2,30.10,NW,323,0.0,0.0,83,0.00,,,0.00,Wunderground v.1.15,2013-07-05 10:32:00,
2013-07-05 03:38:00,57.3,52.2,30.10,NW,325,0.0,0.0,83,0.00,,,0.00,Wunderground v.1.15,2013-07-05 10:38:00,
2013-07-05 03:43:00,57.2,51.8,30.09,NW,325,0.0,0.0,82,0.00,,,0.00,Wunderground v.1.15,2013-07-05 10:43:00,
2013-07-05 03:48:00,57.2,51.8,30.09,NW,325,0.0,0.0,82,0.00,,,0.00,Wunderground v.1.15,2013-07-05 10:48:00,
2013-07-05 03:53:00,57.1,51.7,30.09,NW,325,0.0,0.0,82,0.00,,,0.00,Wunderground v.1.15,2013-07-05 10:53:00,
2013-07-05 03:58:00,57.0,51.6,30.09,NNW,328,0.0,0.0,82,0.00,,,0.00,Wunderground v.1.15,2013-07-05 10:58:00,
2013-07-05 04:04:00,56.9,51.8,30.09,NNW,337,0.0,0.0,83,0.00,,,0.00,Wunderground v.1.15,2013-07-05 11:04:00,
2013-07-05 04:09:00,56.8,51.7,30.10,NNW,337,0.0,0.0,83,0.00,,,0.00,Wunderground v.1.15,2013-07-05 11:09:00,
2013-07-05 04:15:00,56.7,51.6,30.09,NNW,337,0.0,0.0,83,0.00,,,0.00,Wunderground v.1.15,2013-07-05 11:15:00,
2013-07-05 04:20:00,56.7,51.6,30.09,NNW,342,0.0,0.0,83,0.00,,,0.00,Wunderground v.1.15,2013-07-05 11:20:00,
2013-07-05 04:25:00,56.6,51.5,30.09,NNW,342,0.0,0.0,83,0.00,,,0.00,Wunderground v.1.15,2013-07-05 11:25:00,
2013-07-05 04:30:00,56.5,51.7,30.09,NNW,345,0.0,0.0,84,0.00,,,0.00,Wunderground v.1.15,2013-07-05 11:30:00,
2013-07-05 04:35:00,56.5,51.7,30.09,NNW,348,0.0,0.0,84,0.00,,,0.00,Wunderground v.1.15,2013-07-05 11:35:00,
2013-07-05 04:41:00,56.5,51.7,30.09,East,83,0.0,0.0,84,0.00,,,0.00,Wunderground v.1.15,2013-07-05 11:41:00,
2013-07-05 04:46:00,56.5,51.7,30.09,East,84,0.0,0.0,84,0.00,,,0.00,Wunderground v.1.15,2013-07-05 11:46:00,
2013-07-05 04:52:00,56.6,51.8,30.09,East,90,0.0,0.0,84,0.00,,,0.00,Wunderground v.1.15,2013-07-05 11:52:00,
2013-07-05 04:57:00,56.6,51.8,30.09,East,90,0.0,0.0,84,0.00,,,0.00,Wunderground v.1.15,2013-07-05 11:57:00,
2013-07-05 05:02:00,56.7,51.9,30.09,East,90,0.0,0.0,84,0.00,,,0.00,Wunderground v.1.15,2013-07-05 12:02:00,
2013-07-05 05:07:00,56.7,51.6,30.09,East,90,0.0,0.0,83,0.00,,,0.00,Wunderground v.1.15,2013-07-05 12:07:00,
2013-07-05 05:12:00,56.6,51.5,30.09,East,90,0.0,0.0,83,0.00,,,0.00,Wunderground v.1.15,2013-07-05 12:12:00,
2013-07-05 05:17:00,56.6,51.5,30.09,East,91,0.0,0.0,83,0.00,,,0.00,Wunderground v.1.15,2013-07-05 12:17:00,
2013-07-05 05:22:00,56.5,51.4,30.09,East,90,0.0,0.0,83,0.00,,,0.00,Wunderground v.1.15,2013-07-05 12:22:00,
2013-07-05 05:27:00,56.5,51.4,30.09,East,90,0.0,0.0,83,0.00,,,0.00,Wunderground v.1.15,2013-07-05 12:27:00,
2013-07-05 05:32:00,56.5,51.4,30.09,East,90,0.0,0.0,83,0.00,,,0.00,Wunderground v.1.15,2013-07-05 12:32:00,
2013-07-05 05:37:00,56.5,51.4,30.09,East,90,0.0,0.0,83,0.00,,,0.00,Wunderground v.1.15,2013-07-05 12:37:00,
2013-07-05 05:42:00,56.5,51.4,30.09,East,90,0.0,0.0,83,0.00,,,0.00,Wunderground v.1.15,2013-07-05 12:42:00,
2013-07-05 05:47:00,56.5,51.4,30.09,East,88,0.0,0.0,83,0.00,,,0.00,Wunderground v.1.15,2013-07-05 12:47:00,
2013-07-05 05:52:00,56.6,51.5,30.09,East,88,0.0,0.0,83,0.00,,,0.00,Wunderground v.1.15,2013-07-05 12:52:00,
2013-07-05 05:58:00,56.6,51.5,30.09,East,88,0.0,0.0,83,0.00,,,0.00,Wunderground v.1.15,2013-07-05 12:58:00,
2013-07-05 06:03:00,56.6,51.5,30.09,East,88,0.0,0.0,83,0.00,,,0.00,Wunderground v.1.15,2013-07-05 13:03:00,
2013-07-05 06:08:00,56.7,51.9,30.09,East,88,0.0,0.0,84,0.00,,,0.00,Wunderground v.1.15,2013-07-05 13:08:00,
2013-07-05 06:13:00,56.8,52.0,30.09,ENE,76,0.0,0.0,84,0.00,,,0.00,Wunderground v.1.15,2013-07-05 13:13:00,
2013-07-05 06:18:00,56.9,52.1,30.09,WNW,290,0.0,4.0,84,0.00,,,0.00,Wunderground v.1.15,2013-07-05 13:18:00,
2013-07-05 06:23:00,56.9,52.1,30.09,WNW,290,1.0,1.0,84,0.00,,,0.00,Wunderground v.1.15,2013-07-05 13:23:00,
2013-07-05 06:29:00,57.0,52.2,30.09,WNW,290,3.0,4.0,84,0.00,,,0.00,Wunderground v.1.15,2013-07-05 13:29:00,
2013-07-05 06:34:00,57.1,52.6,30.09,West,271,0.0,3.0,85,0.00,,,0.00,Wunderground v.1.15,2013-07-05 13:34:00,
2013-07-05 06:39:00,57.1,52.6,30.09,West,270,1.0,3.0,85,0.00,,,0.00,Wunderground v.1.15,2013-07-05 13:39:00,
2013-07-05 06:44:00,57.2,52.7,30.10,West,269,0.0,3.0,85,0.00,,,0.00,Wunderground v.1.15,2013-07-05 13:44:00,
2013-07-05 06:49:00,57.3,52.8,30.09,West,269,0.0,3.0,85,0.00,,,0.00,Wunderground v.1.15,2013-07-05 13:49:00,
2013-07-05 06:54:00,57.6,53.1,30.09,West,269,0.0,0.0,85,0.00,,,0.00,Wunderground v.1.15,2013-07-05 13:54:00,
2013-07-05 07:00:00,57.9,53.4,30.09,West,266,0.0,0.0,85,0.00,,,0.00,Wunderground v.1.15,2013-07-05 14:00:00,
2013-07-05 07:05:00,58.2,53.7,30.09,West,264,0.0,0.0,85,0.00,,,0.00,Wunderground v.1.15,2013-07-05 14:05:00,
2013-07-05 07:10:00,58.4,53.3,30.09,West,264,0.0,0.0,83,0.00,,,0.00,Wunderground v.1.15,2013-07-05 14:10:00,
2013-07-05 07:15:00,58.6,53.5,30.09,West,265,0.0,2.0,83,0.00,,,0.00,Wunderground v.1.15,2013-07-05 14:15:00,
2013-07-05 07:20:00,58.7,53.5,30.10,West,265,0.0,0.0,83,0.00,,,0.00,Wunderground v.1.15,2013-07-05 14:20:00,
2013-07-05 07:25:00,58.7,53.5,30.10,West,268,0.0,4.0,83,0.00,,,0.00,Wunderground v.1.15,2013-07-05 14:25:00,
2013-07-05 07:30:00,58.6,53.5,30.10,West,267,0.0,1.0,83,0.00,,,0.00,Wunderground v.1.15,2013-07-05 14:30:00,
2013-07-05 07:36:00,58.6,53.5,30.10,West,267,0.0,1.0,83,0.00,,,0.00,Wunderground v.1.15,2013-07-05 14:36:00,
2013-07-05 07:41:00,58.6,53.8,30.10,West,271,0.0,1.0,84,0.00,,,0.00,Wunderground v.1.15,2013-07-05 14:41:00,
2013-07-05 07:46:00,58.5,53.7,30.10,West,272,3.0,3.0,84,0.00,,,0.00,Wunderground v.1.15,2013-07-05 14:46:00,
2013-07-05 07:51:00,58.5,53.7,30.10,West,272,0.0,1.0,84,0.00,,,0.00,Wunderground v.1.15,2013-07-05 14:51:00,
2013-07-05 07:56:00,58.4,53.6,30.10,West,271,0.0,1.0,84,0.00,,,0.00,Wunderground v.1.15,2013-07-05 14:56:00,
2013-07-05 08:01:00,58.4,53.6,30.10,West,265,3.0,4.0,84,0.00,,,0.00,Wunderground v.1.15,2013-07-05 15:01:00,
2013-07-05 08:06:00,58.4,53.6,30.10,West,263,3.0,4.0,84,0.00,,,0.00,Wunderground v.1.15,2013-07-05 15:06:00,
2013-07-05 08:11:00,58.4,53.6,30.10,West,263,0.0,3.0,84,0.00,,,0.00,Wunderground v.1.15,2013-07-05 15:11:00,
2013-07-05 08:16:00,58.5,54.0,30.10,SSW,198,0.0,3.0,85,0.00,,,0.00,Wunderground v.1.15,2013-07-05 15:16:00,
2013-07-05 08:21:00,58.7,53.9,30.10,SSW,204,0.0,0.0,84,0.00,,,0.00,Wunderground v.1.15,2013-07-05 15:21:00,
2013-07-05 08:26:00,59.0,54.2,30.10,SSW,192,0.0,3.0,84,0.00,,,0.00,Wunderground v.1.15,2013-07-05 15:26:00,
2013-07-05 08:31:00,59.0,53.8,30.10,SSW,196,1.0,2.0,83,0.00,,,0.00,Wunderground v.1.15,2013-07-05 15:31:00,
2013-07-05 08:36:00,59.2,53.7,30.10,SSW,196,0.0,2.0,82,0.00,,,0.00,Wunderground v.1.15,2013-07-05 15:36:00,
2013-07-05 08:42:00,59.6,53.8,30.10,SSW,196,0.0,2.0,81,0.00,,,0.00,Wunderground v.1.15,2013-07-05 15:42:00,
2013-07-05 08:47:00,60.0,53.8,30.10,South,187,1.0,5.0,80,0.00,,,0.00,Wunderground v.1.15,2013-07-05 15:47:00,
2013-07-05 08:50:00,60.4,53.9,30.10,SSW,192,0.0,4.0,79,0.00,,,0.00,Wunderground v.1.15,2013-07-05 15:50:00,
2013-07-05 08:55:00,60.8,53.9,30.10,SSW,194,1.0,4.0,78,0.00,,,0.00,Wunderground v.1.15,2013-07-05 15:55:00,
2013-07-05 09:00:00,61.2,53.9,30.10,SW,216,0.0,1.0,77,0.00,,,0.00,Wunderground v.1.15,2013-07-05 16:00:00,
2013-07-05 09:05:00,61.8,54.5,30.10,SSW,211,0.0,5.0,77,0.00,,,0.00,Wunderground v.1.15,2013-07-05 16:05:00,
2013-07-05 09:10:00,62.5,54.8,30.10,SSW,199,2.0,4.0,76,0.00,,,0.00,Wunderground v.1.15,2013-07-05 16:10:00,
2013-07-05 09:15:00,62.8,54.8,30.09,South,174,0.0,7.0,75,0.00,,,0.00,Wunderground v.1.15,2013-07-05 16:15:00,
2013-07-05 09:20:00,63.3,54.9,30.09,SW,216,0.0,4.0,74,0.00,,,0.00,Wunderground v.1.15,2013-07-05 16:20:00,
2013-07-05 09:25:00,63.6,54.8,30.09,SSE,151,1.0,5.0,73,0.00,,,0.00,Wunderground v.1.15,2013-07-05 16:25:00,
2013-07-05 09:26:00,63.6,54.8,30.09,SSE,152,0.0,5.0,73,0.00,,,0.00,Wunderground v.1.15,2013-07-05 16:26:00,
2013-07-05 09:31:00,63.4,54.6,30.10,SSE,152,3.0,6.0,73,0.00,,,0.00,Wunderground v.1.15,2013-07-05 16:31:00,
2013-07-05 09:36:00,63.2,54.4,30.10,South,171,1.0,7.0,73,0.00,,,0.00,Wunderground v.1.15,2013-07-05 16:36:00,
2013-07-05 09:41:00,63.1,54.7,30.10,SSW,196,0.0,2.0,74,0.00,,,0.00,Wunderground v.1.15,2013-07-05 16:41:00,
2013-07-05 09:46:00,62.9,54.5,30.10,SSW,206,0.0,7.0,74,0.00,,,0.00,Wunderground v.1.15,2013-07-05 16:46:00,
2013-07-05 09:51:00,62.8,54.4,30.10,SSW,211,0.0,1.0,74,0.00,,,0.00,Wunderground v.1.15,2013-07-05 16:51:00,
2013-07-05 09:56:00,62.7,54.3,30.10,South,178,3.0,7.0,74,0.00,,,0.00,Wunderground v.1.15,2013-07-05 16:56:00,
2013-07-05 10:01:00,62.7,54.3,30.10,SSE,155,1.0,1.0,74,0.00,,,0.00,Wunderground v.1.15,2013-07-05 17:01:00,
2013-07-05 10:06:00,62.7,54.3,30.10,SSE,147,3.0,4.0,74,0.00,,,0.00,Wunderground v.1.15,2013-07-05 17:06:00,
2013-07-05 10:11:00,62.6,54.6,30.10,SSE,152,1.0,4.0,75,0.00,,,0.00,Wunderground v.1.15,2013-07-05 17:11:00,
2013-07-05 10:16:00,62.7,54.7,30.10,South,175,0.0,4.0,75,0.00,,,0.00,Wunderground v.1.15,2013-07-05 17:16:00,
2013-07-05 10:21:00,62.8,54.8,30.09,SSE,164,0.0,1.0,75,0.00,,,0.00,Wunderground v.1.15,2013-07-05 17:21:00,
2013-07-05 10:26:00,62.9,54.5,30.09,SSE,150,0.0,7.0,74,0.00,,,0.00,Wunderground v.1.15,2013-07-05 17:26:00,
2013-07-05 10:31:00,63.0,54.6,30.09,South,174,0.0,1.0,74,0.00,,,0.00,Wunderground v.1.15,2013-07-05 17:31:00,
2013-07-05 10:36:00,63.2,54.8,30.09,SSW,213,0.0,5.0,74,0.00,,,0.00,Wunderground v.1.15,2013-07-05 17:36:00,
2013-07-05 10:41:00,63.5,54.7,30.09,SSE,167,1.0,4.0,73,0.00,,,0.00,Wunderground v.1.15,2013-07-05 17:41:00,
2013-07-05 10:46:00,63.8,55.0,30.09,SSE,162,0.0,4.0,73,0.00,,,0.00,Wunderground v.1.15,2013-07-05 17:46:00,
2013-07-05 10:51:00,64.1,54.9,30.09,SSW,200,0.0,4.0,72,0.00,,,0.00,Wunderground v.1.15,2013-07-05 17:51:00,
2013-07-05 10:57:00,64.5,54.9,30.09,SSE,163,1.0,4.0,71,0.00,,,0.00,Wunderground v.1.15,2013-07-05 17:57:00,
2013-07-05 11:02:00,65.1,55.1,30.09,SE,132,2.0,5.0,70,0.00,,,0.00,Wunderground v.1.15,2013-07-05 18:02:00,
2013-07-05 11:07:00,65.5,55.1,30.09,SW,226,2.0,5.0,69,0.00,,,0.00,Wunderground v.1.15,2013-07-05 18:07:00,
2013-07-05 11:12:00,65.7,55.2,30.09,SE,134,2.0,3.0,69,0.00,,,0.00,Wunderground v.1.15,2013-07-05 18:12:00,
2013-07-05 11:17:00,66.0,55.1,30.09,SW,233,3.0,5.0,68,0.00,,,0.00,Wunderground v.1.15,2013-07-05 18:17:00,
2013-07-05 11:22:00,66.2,55.3,30.09,SE,135,4.0,4.0,68,0.00,,,0.00,Wunderground v.1.15,2013-07-05 18:22:00,
2013-07-05 11:27:00,66.4,54.7,30.09,South,189,0.0,5.0,66,0.00,,,0.00,Wunderground v.1.15,2013-07-05 18:27:00,
2013-07-05 11:32:00,66.3,55.4,30.08,SSW,192,4.0,4.0,68,0.00,,,0.00,Wunderground v.1.15,2013-07-05 18:32:00,
2013-07-05 11:37:00,66.4,55.1,30.08,SSW,194,0.0,5.0,67,0.00,,,0.00,Wunderground v.1.15,2013-07-05 18:37:00,
2013-07-05 11:42:00,66.4,55.1,30.08,South,171,0.0,6.0,67,0.00,,,0.00,Wunderground v.1.15,2013-07-05 18:42:00,
2013-07-05 11:47:00,66.7,55.4,30.08,SSE,163,2.0,6.0,67,0.00,,,0.00,Wunderground v.1.15,2013-07-05 18:47:00,
2013-07-05 11:52:00,66.9,55.6,30.08,SSW,205,5.0,7.0,67,0.00,,,0.00,Wunderground v.1.15,2013-07-05 18:52:00,
2013-07-05 11:57:00,67.0,55.7,30.08,South,187,1.0,7.0,67,0.00,,,0.00,Wunderground v.1.15,2013-07-05 18:57:00,
2013-07-05 12:02:00,67.3,55.5,30.08,SE,141,5.0,5.0,66,0.00,,,0.00,Wunderground v.1.15,2013-07-05 19:02:00,
2013-07-05 12:07:00,67.4,55.6,30.08,SE,141,6.0,9.0,66,0.00,,,0.00,Wunderground v.1.15,2013-07-05 19:07:00,
2013-07-05 12:12:00,67.1,55.4,30.08,SSE,156,0.0,5.0,66,0.00,,,0.00,Wunderground v.1.15,2013-07-05 19:12:00,
2013-07-05 12:17:00,67.0,55.3,30.08,SSW,202,0.0,5.0,66,0.00,,,0.00,Wunderground v.1.15,2013-07-05 19:17:00,
2013-07-05 12:22:00,67.1,54.9,30.08,ESE,118,3.0,6.0,65,0.00,,,0.00,Wunderground v.1.15,2013-07-05 19:22:00,
2013-07-05 12:27:00,67.2,55.5,30.08,SE,134,0.0,6.0,66,0.00,,,0.00,Wunderground v.1.15,2013-07-05 19:27:00,
2013-07-05 12:32:00,67.2,55.0,30.08,SE,144,4.0,6.0,65,0.00,,,0.00,Wunderground v.1.15,2013-07-05 19:32:00,
2013-07-05 12:37:00,67.2,55.5,30.08,SE,130,0.0,7.0,66,0.00,,,0.00,Wunderground v.1.15,2013-07-05 19:37:00,
2013-07-05 12:42:00,67.2,55.0,30.08,SSE,152,2.0,7.0,65,0.00,,,0.00,Wunderground v.1.15,2013-07-05 19:42:00,
2013-07-05 12:47:00,67.4,55.6,30.08,South,176,0.0,7.0,66,0.00,,,0.00,Wunderground v.1.15,2013-07-05 19:47:00,
2013-07-05 12:52:00,68.0,55.8,30.08,South,178,1.0,6.0,65,0.00,,,0.00,Wunderground v.1.15,2013-07-05 19:52:00,
2013-07-05 12:57:00,68.8,55.7,30.08,SE,129,0.0,9.0,63,0.00,,,0.00,Wunderground v.1.15,2013-07-05 19:57:00,
2013-07-05 13:02:00,68.8,55.2,30.08,SSE,161,3.0,10.0,62,0.00,,,0.00,Wunderground v.1.15,2013-07-05 20:02:00,
2013-07-05 13:07:00,68.7,56.0,30.08,SSE,158,2.0,10.0,64,0.00,,,0.00,Wunderground v.1.15,2013-07-05 20:07:00,
2013-07-05 13:12:00,68.5,55.4,30.08,East,96,2.0,6.0,63,0.00,,,0.00,Wunderground v.1.15,2013-07-05 20:12:00,
2013-07-05 13:17:00,68.3,55.2,30.08,SSE,168,1.0,6.0,63,0.00,,,0.00,Wunderground v.1.15,2013-07-05 20:17:00,
2013-07-05 13:22:00,68.4,55.3,30.08,South,188,0.0,3.0,63,0.00,,,0.00,Wunderground v.1.15,2013-07-05 20:22:00,
2013-07-05 13:27:00,68.8,54.8,30.07,SSE,154,3.0,4.0,61,0.00,,,0.00,Wunderground v.1.15,2013-07-05 20:27:00,
2013-07-05 13:28:00,68.8,54.8,30.07,SSE,157,4.0,5.0,61,0.00,,,0.00,Wunderground v.1.15,2013-07-05 20:28:00,
2013-07-05 13:33:00,69.3,55.3,30.07,SSE,153,2.0,8.0,61,0.00,,,0.00,Wunderground v.1.15,2013-07-05 20:33:00,
2013-07-05 13:38:00,69.5,54.5,30.08,SE,144,2.0,8.0,59,0.00,,,0.00,Wunderground v.1.15,2013-07-05 20:38:00,
2013-07-05 13:43:00,69.5,54.5,30.08,South,171,1.0,7.0,59,0.00,,,0.00,Wunderground v.1.15,2013-07-05 20:43:00,
2013-07-05 13:44:00,69.4,54.9,30.08,South,189,0.0,7.0,60,0.00,,,0.00,Wunderground v.1.15,2013-07-05 20:44:00,
2013-07-05 13:48:00,69.4,54.9,30.07,SSE,155,0.0,7.0,60,0.00,,,0.00,Wunderground v.1.15,2013-07-05 20:48:00,
2013-07-05 13:49:00,69.4,54.9,30.07,SE,146,3.0,7.0,60,0.00,,,0.00,Wunderground v.1.15,2013-07-05 20:49:00,
2013-07-05 13:54:00,69.2,54.7,30.07,SSE,168,2.0,6.0,60,0.00,,,0.00,Wunderground v.1.15,2013-07-05 20:54:00,
2013-07-05 13:59:00,69.0,55.0,30.07,SE,137,0.0,6.0,61,0.00,,,0.00,Wunderground v.1.15,2013-07-05 20:59:00,
2013-07-05 14:00:00,69.0,55.0,30.07,ESE,121,0.0,2.0,61,0.00,,,0.00,Wunderground v.1.15,2013-07-05 21:00:00,
2013-07-05 14:05:00,69.0,55.0,30.07,SSE,158,0.0,2.0,61,0.00,,,0.00,Wunderground v.1.15,2013-07-05 21:05:00,
2013-07-05 14:10:00,69.1,54.6,30.07,South,187,0.0,2.0,60,0.00,,,0.00,Wunderground v.1.15,2013-07-05 21:10:00,
2013-07-05 14:15:00,69.3,54.8,30.07,SE,143,7.0,7.0,60,0.00,,,0.00,Wunderground v.1.15,2013-07-05 21:15:00,
2013-07-05 14:20:00,69.5,55.5,30.07,SE,141,5.0,6.0,61,0.00,,,0.00,Wunderground v.1.15,2013-07-05 21:20:00,
2013-07-05 14:25:00,69.6,54.6,30.07,ESE,111,2.0,7.0,59,0.00,,,0.00,Wunderground v.1.15,2013-07-05 21:25:00,
2013-07-05 14:30:00,69.8,55.3,30.07,SSE,147,0.0,3.0,60,0.00,,,0.00,Wunderground v.1.15,2013-07-05 21:30:00,
2013-07-05 14:35:00,69.9,54.9,30.07,SE,140,4.0,6.0,59,0.00,,,0.00,Wunderground v.1.15,2013-07-05 21:35:00,
2013-07-05 14:40:00,69.9,54.9,30.06,ESE,111,3.0,3.0,59,0.00,,,0.00,Wunderground v.1.15,2013-07-05 21:40:00,
2013-07-05 14:45:00,69.8,55.3,30.06,SE,136,3.0,6.0,60,0.00,,,0.00,Wunderground v.1.15,2013-07-05 21:45:00,
2013-07-05 14:50:00,70.0,55.0,30.06,SSW,192,1.0,2.0,59,0.00,,,0.00,Wunderground v.1.15,2013-07-05 21:50:00,
2013-07-05 14:55:00,70.2,55.2,30.06,South,186,2.0,4.0,59,0.00,,,0.00,Wunderground v.1.15,2013-07-05 21:55:00,
2013-07-05 15:00:00,70.4,55.4,30.06,South,171,2.0,2.0,59,0.00,,,0.00,Wunderground v.1.15,2013-07-05 22:00:00,
2013-07-05 15:05:00,70.5,55.0,30.06,West,274,0.0,6.0,58,0.00,,,0.00,Wunderground v.1.15,2013-07-05 22:05:00,
2013-07-05 15:10:00,70.7,54.7,30.06,SSW,209,1.0,1.0,57,0.00,,,0.00,Wunderground v.1.15,2013-07-05 22:10:00,
2013-07-05 15:15:00,70.9,54.9,30.06,SW,225,0.0,4.0,57,0.00,,,0.00,Wunderground v.1.15,2013-07-05 22:15:00,
2013-07-05 15:20:00,71.1,55.1,30.06,SSE,148,0.0,2.0,57,0.00,,,0.00,Wunderground v.1.15,2013-07-05 22:20:00,
2013-07-05 15:25:00,71.3,55.3,30.06,SSE,165,0.0,6.0,57,0.00,,,0.00,Wunderground v.1.15,2013-07-05 22:25:00,
2013-07-05 15:30:00,71.2,54.7,30.06,South,170,3.0,3.0,56,0.00,,,0.00,Wunderground v.1.15,2013-07-05 22:30:00,
2013-07-05 15:35:00,71.0,54.0,30.06,WNW,288,4.0,7.0,55,0.00,,,0.00,Wunderground v.1.15,2013-07-05 22:35:00,
2013-07-05 15:40:00,71.0,55.0,30.06,North,355,0.0,3.0,57,0.00,,,0.00,Wunderground v.1.15,2013-07-05 22:40:00,
2013-07-05 15:45:00,71.1,55.1,30.05,South,178,1.0,4.0,57,0.00,,,0.00,Wunderground v.1.15,2013-07-05 22:45:00,
2013-07-05 15:50:00,71.3,55.3,30.05,WSW,243,1.0,6.0,57,0.00,,,0.00,Wunderground v.1.15,2013-07-05 22:50:00,
2013-07-05 15:55:00,71.4,54.9,30.05,SSW,204,1.0,6.0,56,0.00,,,0.00,Wunderground v.1.15,2013-07-05 22:55:00,
2013-07-05 16:00:00,71.9,55.3,30.05,South,173,0.0,1.0,56,0.00,,,0.00,Wunderground v.1.15,2013-07-05 23:00:00,
2013-07-05 16:05:00,72.5,55.4,30.05,WNW,284,3.0,9.0,55,0.00,,,0.00,Wunderground v.1.15,2013-07-05 23:05:00,
2013-07-05 16:10:00,72.7,55.6,30.04,SW,217,1.0,2.0,55,0.00,,,0.00,Wunderground v.1.15,2013-07-05 23:10:00,
2013-07-05 16:15:00,72.8,55.2,30.04,SSW,206,0.0,4.0,54,0.00,,,0.00,Wunderground v.1.15,2013-07-05 23:15:00,
2013-07-05 16:20:00,72.9,55.3,30.04,South,170,0.0,1.0,54,0.00,,,0.00,Wunderground v.1.15,2013-07-05 23:20:00,
2013-07-05 16:25:00,73.0,55.9,30.04,SSE,165,0.0,1.0,55,0.00,,,0.00,Wunderground v.1.15,2013-07-05 23:25:00,
2013-07-05 16:30:00,73.0,55.9,30.04,NNW,343,6.0,7.0,55,0.00,,,0.00,Wunderground v.1.15,2013-07-05 23:30:00,
2013-07-05 16:35:00,72.8,55.7,30.04,NNW,336,0.0,7.0,55,0.00,,,0.00,Wunderground v.1.15,2013-07-05 23:35:00,
2013-07-05 16:41:00,72.7,56.1,30.04,SSW,213,0.0,2.0,56,0.00,,,0.00,Wunderground v.1.15,2013-07-05 23:41:00,
2013-07-05 16:46:00,73.0,55.4,30.04,West,276,2.0,7.0,54,0.00,,,0.00,Wunderground v.1.15,2013-07-05 23:46:00,
2013-07-05 16:51:00,72.9,55.3,30.04,WSW,239,0.0,3.0,54,0.00,,,0.00,Wunderground v.1.15,2013-07-05 23:51:00,
2013-07-05 16:56:00,72.9,55.8,30.04,WSW,248,3.0,4.0,55,0.00,,,0.00,Wunderground v.1.15,2013-07-05 23:56:00,
2013-07-05 17:01:00,72.7,55.6,30.03,West,263,0.0,1.0,55,0.00,,,0.00,Wunderground v.1.15,2013-07-06 00:01:00,
2013-07-05 17:06:00,72.8,55.7,30.03,SW,229,0.0,5.0,55,0.00,,,0.00,Wunderground v.1.15,2013-07-06 00:06:00,
2013-07-05 17:11:00,72.8,55.7,30.03,South,190,0.0,2.0,55,0.00,,,0.00,Wunderground v.1.15,2013-07-06 00:11:00,
2013-07-05 17:16:00,73.1,56.0,30.03,SSW,209,3.0,6.0,55,0.00,,,0.00,Wunderground v.1.15,2013-07-06 00:16:00,
2013-07-05 17:21:00,73.3,55.6,30.03,South,177,0.0,6.0,54,0.00,,,0.00,Wunderground v.1.15,2013-07-06 00:21:00,
2013-07-05 17:27:00,73.2,55.6,30.03,SW,233,1.0,6.0,54,0.00,,,0.00,Wunderground v.1.15,2013-07-06 00:27:00,
2013-07-05 17:32:00,73.0,55.9,30.03,West,275,0.0,2.0,55,0.00,,,0.00,Wunderground v.1.15,2013-07-06 00:32:00,
2013-07-05 17:37:00,73.0,55.9,30.02,WNW,284,0.0,4.0,55,0.00,,,0.00,Wunderground v.1.15,2013-07-06 00:37:00,
2013-07-05 17:42:00,73.0,55.9,30.02,South,180,0.0,1.0,55,0.00,,,0.00,Wunderground v.1.15,2013-07-06 00:42:00,
2013-07-05 17:47:00,73.1,56.0,30.02,SSE,152,1.0,4.0,55,0.00,,,0.00,Wunderground v.1.15,2013-07-06 00:47:00,
2013-07-05 17:52:00,73.2,56.1,30.02,WSW,256,0.0,3.0,55,0.00,,,0.00,Wunderground v.1.15,2013-07-06 00:52:00,
2013-07-05 17:57:00,73.1,56.0,30.02,WSW,257,0.0,3.0,55,0.00,,,0.00,Wunderground v.1.15,2013-07-06 00:57:00,
2013-07-05 18:02:00,73.1,56.0,30.02,SSW,210,0.0,1.0,55,0.00,,,0.00,Wunderground v.1.15,2013-07-06 01:02:00,
2013-07-05 18:07:00,73.0,55.9,30.02,WNW,284,2.0,3.0,55,0.00,,,0.00,Wunderground v.1.15,2013-07-06 01:07:00,
2013-07-05 18:12:00,72.9,56.3,30.02,West,263,0.0,0.0,56,0.00,,,0.00,Wunderground v.1.15,2013-07-06 01:12:00,
2013-07-05 18:17:00,72.7,56.1,30.01,West,272,0.0,4.0,56,0.00,,,0.00,Wunderground v.1.15,2013-07-06 01:17:00,
2013-07-05 18:22:00,72.6,56.0,30.01,NW,304,2.0,3.0,56,0.00,,,0.00,Wunderground v.1.15,2013-07-06 01:22:00,
2013-07-05 18:27:00,72.3,55.7,30.01,NW,316,0.0,3.0,56,0.00,,,0.00,Wunderground v.1.15,2013-07-06 01:27:00,
2013-07-05 18:32:00,72.2,55.6,30.01,NW,313,0.0,1.0,56,0.00,,,0.00,Wunderground v.1.15,2013-07-06 01:32:00,
2013-07-05 18:37:00,72.0,55.9,30.01,WNW,296,4.0,5.0,57,0.00,,,0.00,Wunderground v.1.15,2013-07-06 01:37:00,
2013-07-05 18:42:00,71.7,55.7,30.01,WNW,297,2.0,3.0,57,0.00,,,0.00,Wunderground v.1.15,2013-07-06 01:42:00,
2013-07-05 18:47:00,71.5,55.9,30.01,WNW,290,0.0,3.0,58,0.00,,,0.00,Wunderground v.1.15,2013-07-06 01:47:00,
2013-07-05 18:52:00,71.5,55.9,30.01,West,269,3.0,5.0,58,0.00,,,0.00,Wunderground v.1.15,2013-07-06 01:52:00,
2013-07-05 18:57:00,71.7,56.1,30.01,West,279,2.0,7.0,58,0.00,,,0.00,Wunderground v.1.15,2013-07-06 01:57:00,
2013-07-05 19:02:00,71.8,55.7,30.01,West,281,2.0,3.0,57,0.00,,,0.00,Wunderground v.1.15,2013-07-06 02:02:00,
2013-07-05 19:07:00,72.1,56.0,30.01,WNW,293,2.0,5.0,57,0.00,,,0.00,Wunderground v.1.15,2013-07-06 02:07:00,
2013-07-05 19:12:00,72.3,55.7,30.01,WNW,283,0.0,4.0,56,0.00,,,0.00,Wunderground v.1.15,2013-07-06 02:12:00,
2013-07-05 19:17:00,72.6,56.0,30.01,SW,219,0.0,4.0,56,0.00,,,0.00,Wunderground v.1.15,2013-07-06 02:17:00,
2013-07-05 19:22:00,72.8,56.2,30.01,WNW,284,3.0,4.0,56,0.00,,,0.00,Wunderground v.1.15,2013-07-06 02:22:00,
2013-07-05 19:27:00,73.0,55.9,30.01,NNW,342,1.0,5.0,55,0.00,,,0.00,Wunderground v.1.15,2013-07-06 02:27:00,
2013-07-05 19:32:00,73.0,55.9,30.01,NNW,340,3.0,3.0,55,0.00,,,0.00,Wunderground v.1.15,2013-07-06 02:32:00,
2013-07-05 19:37:00,73.0,55.9,30.01,NW,323,0.0,3.0,55,0.00,,,0.00,Wunderground v.1.15,2013-07-06 02:37:00,
2013-07-05 19:42:00,72.9,55.8,30.01,NW,311,0.0,2.0,55,0.00,,,0.00,Wunderground v.1.15,2013-07-06 02:42:00,
2013-07-05 19:47:00,72.6,55.5,30.01,WNW,288,2.0,3.0,55,0.00,,,0.00,Wunderground v.1.15,2013-07-06 02:47:00,
2013-07-05 19:52:00,72.1,55.0,30.01,WNW,294,1.0,3.0,55,0.00,,,0.00,Wunderground v.1.15,2013-07-06 02:52:00,
2013-07-05 19:57:00,71.8,55.3,30.01,WNW,301,2.0,5.0,56,0.00,,,0.00,Wunderground v.1.15,2013-07-06 02:57:00,
2013-07-05 20:02:00,71.5,54.5,30.01,WNW,290,3.0,5.0,55,0.00,,,0.00,Wunderground v.1.15,2013-07-06 03:02:00,
2013-07-05 20:07:00,71.2,54.7,30.01,WNW,287,3.0,5.0,56,0.00,,,0.00,Wunderground v.1.15,2013-07-06 03:07:00,
2013-07-05 20:12:00,70.9,54.4,30.01,WNW,292,2.0,4.0,56,0.00,,,0.00,Wunderground v.1.15,2013-07-06 03:12:00,
2013-07-05 20:17:00,70.7,53.7,30.01,WNW,288,1.0,4.0,55,0.00,,,0.00,Wunderground v.1.15,2013-07-06 03:17:00,
2013-07-05 20:22:00,70.6,54.1,30.01,WNW,292,2.0,3.0,56,0.00,,,0.00,Wunderground v.1.15,2013-07-06 03:22:00,
2013-07-05 20:27:00,70.4,54.9,30.01,WNW,290,1.0,4.0,58,0.00,,,0.00,Wunderground v.1.15,2013-07-06 03:27:00,
2013-07-05 20:32:00,70.3,54.8,30.01,WNW,288,0.0,3.0,58,0.00,,,0.00,Wunderground v.1.15,2013-07-06 03:32:00,
2013-07-05 20:37:00,70.2,55.2,30.01,WNW,291,0.0,3.0,59,0.00,,,0.00,Wunderground v.1.15,2013-07-06 03:37:00,
2013-07-05 20:42:00,70.0,55.0,30.01,WNW,291,1.0,1.0,59,0.00,,,0.00,Wunderground v.1.15,2013-07-06 03:42:00,
2013-07-05 20:47:00,69.8,55.3,30.01,WNW,283,0.0,3.0,60,0.00,,,0.00,Wunderground v.1.15,2013-07-06 03:47:00,
2013-07-05 20:48:00,69.8,55.3,30.01,WNW,284,0.0,3.0,60,0.00,,,0.00,Wunderground v.1.15,2013-07-06 03:48:00,
2013-07-05 20:53:00,69.6,55.1,30.01,West,278,0.0,3.0,60,0.00,,,0.00,Wunderground v.1.15,2013-07-06 03:53:00,
2013-07-05 20:58:00,69.4,55.4,30.01,West,278,0.0,3.0,61,0.00,,,0.00,Wunderground v.1.15,2013-07-06 03:58:00,
2013-07-05 21:01:00,69.3,55.3,30.01,West,274,2.0,3.0,61,0.00,,,0.00,Wunderground v.1.15,2013-07-06 04:01:00,
2013-07-05 21:06:00,69.1,55.5,30.01,West,273,0.0,3.0,62,0.00,,,0.00,Wunderground v.1.15,2013-07-06 04:06:00,
2013-07-05 21:11:00,68.9,55.3,30.01,West,268,1.0,2.0,62,0.00,,,0.00,Wunderground v.1.15,2013-07-06 04:11:00,
2013-07-05 21:16:00,68.6,55.1,30.01,West,262,1.0,5.0,62,0.00,,,0.00,Wunderground v.1.15,2013-07-06 04:16:00,
2013-07-05 21:21:00,68.4,54.9,30.01,WSW,258,4.0,5.0,62,0.00,,,0.00,Wunderground v.1.15,2013-07-06 04:21:00,
2013-07-05 21:26:00,68.2,55.1,30.01,West,260,0.0,5.0,63,0.00,,,0.00,Wunderground v.1.15,2013-07-06 04:26:00,
2013-07-05 21:31:00,68.0,54.9,30.01,West,259,3.0,4.0,63,0.00,,,0.00,Wunderground v.1.15,2013-07-06 04:31:00,
2013-07-05 21:36:00,67.8,54.7,30.02,WSW,258,2.0,5.0,63,0.00,,,0.00,Wunderground v.1.15,2013-07-06 04:36:00,
2013-07-05 21:41:00,67.7,55.1,30.02,WSW,258,3.0,4.0,64,0.00,,,0.00,Wunderground v.1.15,2013-07-06 04:41:00,
2013-07-05 21:46:00,67.5,54.9,30.02,WSW,258,3.0,4.0,64,0.00,,,0.00,Wunderground v.1.15,2013-07-06 04:46:00,
2013-07-05 21:51:00,67.4,54.8,30.02,West,260,0.0,4.0,64,0.00,,,0.00,Wunderground v.1.15,2013-07-06 04:51:00,
2013-07-05 21:56:00,67.3,55.1,30.02,West,260,2.0,4.0,65,0.00,,,0.00,Wunderground v.1.15,2013-07-06 04:56:00,
2013-07-05 22:01:00,67.2,55.0,30.02,West,259,0.0,3.0,65,0.00,,,0.00,Wunderground v.1.15,2013-07-06 05:01:00,
2013-07-05 22:06:00,67.1,54.9,30.02,West,260,2.0,4.0,65,0.00,,,0.00,Wunderground v.1.15,2013-07-06 05:06:00,
2013-07-05 22:11:00,67.0,55.7,30.02,West,260,0.0,1.0,67,0.00,,,0.00,Wunderground v.1.15,2013-07-06 05:11:00,
2013-07-05 22:16:00,66.9,56.0,30.02,West,260,0.0,1.0,68,0.00,,,0.00,Wunderground v.1.15,2013-07-06 05:16:00,
2013-07-05 22:21:00,66.8,56.3,30.02,West,260,0.0,0.0,69,0.00,,,0.00,Wunderground v.1.15,2013-07-06 05:21:00,
2013-07-05 22:26:00,66.6,57.3,30.02,West,260,0.0,0.0,72,0.00,,,0.00,Wunderground v.1.15,2013-07-06 05:26:00,
2013-07-05 22:31:00,66.3,57.0,30.02,West,260,0.0,0.0,72,0.00,,,0.00,Wunderground v.1.15,2013-07-06 05:31:00,
2013-07-05 22:36:00,66.0,56.3,30.02,West,260,0.0,0.0,71,0.00,,,0.00,Wunderground v.1.15,2013-07-06 05:36:00,
2013-07-05 22:41:00,65.6,56.3,30.02,West,260,0.0,0.0,72,0.00,,,0.00,Wunderground v.1.15,2013-07-06 05:41:00,
2013-07-05 22:46:00,65.3,56.4,30.02,West,260,0.0,0.0,73,0.00,,,0.00,Wunderground v.1.15,2013-07-06 05:46:00,
2013-07-05 22:51:00,65.0,56.5,30.02,West,260,0.0,0.0,74,0.00,,,0.00,Wunderground v.1.15,2013-07-06 05:51:00,
2013-07-05 22:56:00,64.8,56.7,30.02,West,260,0.0,0.0,75,0.00,,,0.00,Wunderground v.1.15,2013-07-06 05:56:00,
2013-07-05 23:01:00,64.5,56.8,30.02,West,260,0.0,0.0,76,0.00,,,0.00,Wunderground v.1.15,2013-07-06 06:01:00,
2013-07-05 23:06:00,64.3,56.6,30.02,West,260,0.0,0.0,76,0.00,,,0.00,Wunderground v.1.15,2013-07-06 06:06:00,
2013-07-05 23:11:00,64.1,56.7,30.02,West,260,0.0,0.0,77,0.00,,,0.00,Wunderground v.1.15,2013-07-06 06:11:00,
2013-07-05 23:17:00,63.9,56.5,30.02,West,260,0.0,0.0,77,0.00,,,0.00,Wunderground v.1.15,2013-07-06 06:17:00,
2013-07-05 23:22:00,63.7,56.4,30.02,West,260,0.0,0.0,77,0.00,,,0.00,Wunderground v.1.15,2013-07-06 06:22:00,
2013-07-05 23:27:00,63.5,56.5,30.02,West,260,0.0,0.0,78,0.00,,,0.00,Wunderground v.1.15,2013-07-06 06:27:00,
2013-07-05 23:32:00,63.4,56.4,30.02,West,260,0.0,0.0,78,0.00,,,0.00,Wunderground v.1.15,2013-07-06 06:32:00,
2013-07-05 23:37:00,63.1,55.8,30.02,West,260,0.0,0.0,77,0.00,,,0.00,Wunderground v.1.15,2013-07-06 06:37:00,
2013-07-05 23:42:00,62.9,55.6,30.02,West,260,0.0,0.0,77,0.00,,,0.00,Wunderground v.1.15,2013-07-06 06:42:00,
2013-07-05 23:47:00,62.8,55.8,30.02,West,260,0.0,0.0,78,0.00,,,0.00,Wunderground v.1.15,2013-07-06 06:47:00,
2013-07-05 23:52:00,62.7,55.7,30.02,West,260,0.0,0.0,78,0.00,,,0.00,Wunderground v.1.15,2013-07-06 06:52:00,
2013-07-05 23:57:00,62.6,56.0,30.02,West,260,0.0,0.0,79,0.00,,,0.00,Wunderground v.1.15,2013-07-06 06:57:00,